Skip Page Navigation
NASA JPL Caltech
NASA Logo - Jet Propulsion Laboratory + View the NASA Portal
+ Center for Near-Earth Object Studies
JPL Home Earth Solar System Stars & Galaxies Technology
JPL Solar System Dynamics
BODIES ORBITS EPHEMERIDES TOOLS PHYSICAL DATA DISCOVERY FAQ SITE MAP
JPL Small-Body Database Browser
Search: [ help ]  
72976 (2002 CQ235)
Classification: Main-belt Asteroid          SPK-ID: 2072976
Ephemeris | Orbit Diagram | Orbital Elements | Mission Design | Physical Parameters | Discovery Circumstances ]

[ show orbit diagram ]
Orbital Elements at Epoch 2459200.5 (2020-Dec-17.0) TDB
Reference: JPL 21 (heliocentric ecliptic J2000)
 Element Value Uncertainty (1-sigma)   Units 
e .1825455917474487 3.1973e-08  
a 2.228691333586398 8.4127e-09 au
q 1.821853555274459 7.1261e-08 au
i 7.238189262570533 3.8733e-06 deg
node 92.08385821913595 3.5444e-05 deg
peri 188.0356068579385 3.9519e-05 deg
M 119.3966582647308 1.9763e-05 deg
tp 2458797.446233229091
(2019-Nov-09.94623323)
6.6273e-05 TDB
period 1215.271500445241
3.33
6.8809e-06
1.884e-08
d
yr
n .2962301015601091 1.6773e-09 deg/d
Q 2.635529111898338 9.9484e-09 au
  Orbit Determination Parameters
   # obs. used (total)      731  
   data-arc span      11017 days (30.16 yr)  
   first obs. used      1990-11-10  
   last obs. used      2021-01-08  
   planetary ephem.      DE441  
   SB-pert. ephem.      SB441-N16  
   condition code      0  
   norm. resid. RMS      .52941  
   source      ORB  
   producer      Otto Matic  
   solution date      2021-Apr-13 13:05:06  

Additional Information
 Earth MOID = .803833 au 
 Jupiter MOID = 2.49545 au 
 T_jup = 3.611 
[ show covariance matrix ]

Ephemeris | Orbit Diagram | Orbital Elements | Mission Design | Physical Parameters | Discovery Circumstances ]

Physical Parameter Table
Parameter Symbol Value Units Sigma Reference Notes
absolute magnitude H 16.07   n/a MPCxxxxx  

72976 (2002 CQ235)          Discovered 2002-Feb-08 by LINEAR at Socorro
Reference: 20031109/Numbers.arcLast Updated: 2004-04-19

Alternate Designations
 2002 CQ235 = 2000 VF46 
Ephemeris | Orbit Diagram | Orbital Elements | Mission Design | Physical Parameters | Discovery Circumstances ]
ABOUT SSD CREDITS/AWARDS PRIVACY/COPYRIGHT GLOSSARY LINKS
FirstGov 2021-Jun-14 13:31 UT
(server date/time)  
NASA Home Page
Site Manager:   Ryan S. Park
Webmaster  Alan B. Chamberlin